HZA42 OEMA-OEJN

Flight info

Callsign HZA42
Flight time 0h 42m
Altitude 32000
Route SISUD B544 RBG/N0481F310 B544 NOMDA
Aircraft A346/H-SDE2E3FGHIJ3J4J5M1RWXY/LB1D1

Departure

Time 2026-04-29 21:21
Airport Prince Mohammad Bin Abdulaziz Airport (OEMA)

Arrival

Time 2026-04-29 22:04
Airport King Abdulaziz International Airport (OEJN)
Time Latitude Longitude Altitude Speed Heading
2026-04-29 21:00 24.54767 39.69890 2113 ft 0 kts 240°
2026-04-29 21:15 24.54776 39.69907 2113 ft 5 kts 240°
2026-04-29 21:15 24.54798 39.69948 2113 ft 8 kts 239°
2026-04-29 21:15 24.54824 39.69997 2114 ft 5 kts 239°
2026-04-29 21:15 24.54831 39.70009 2113 ft 0 kts 239°
2026-04-29 21:16 24.54827 39.70002 2113 ft 3 kts 238°
2026-04-29 21:16 24.54816 39.69996 2113 ft 2 kts 179°
2026-04-29 21:16 24.54782 39.70013 2113 ft 10 kts 153°
2026-04-29 21:16 24.54713 39.70059 2114 ft 13 kts 136°
2026-04-29 21:17 24.54695 39.70135 2115 ft 9 kts 64°
2026-04-29 21:17 24.54756 39.70169 2116 ft 12 kts
2026-04-29 21:17 24.54851 39.70178 2116 ft 16 kts
2026-04-29 21:17 24.54973 39.70187 2116 ft 19 kts
2026-04-29 21:18 24.55116 39.70196 2116 ft 22 kts
2026-04-29 21:18 24.55276 39.70209 2116 ft 24 kts
2026-04-29 21:18 24.55451 39.70224 2117 ft 26 kts
2026-04-29 21:18 24.55638 39.70235 2116 ft 28 kts
2026-04-29 21:19 24.55833 39.70249 2116 ft 29 kts
2026-04-29 21:19 24.56039 39.70264 2117 ft 30 kts
2026-04-29 21:19 24.56203 39.70276 2116 ft 20 kts
2026-04-29 21:19 24.56294 39.70284 2117 ft 7 kts 11°
2026-04-29 21:20 24.56331 39.70320 2120 ft 7 kts 64°
2026-04-29 21:20 24.56340 39.70368 2125 ft 5 kts 82°
2026-04-29 21:20 24.56336 39.70389 2122 ft 3 kts 129°
2026-04-29 21:20 24.56308 39.70395 2124 ft 6 kts 181°
2026-04-29 21:21 24.56146 39.70388 2121 ft 57 kts 184°
2026-04-29 21:21 24.55511 39.70340 2120 ft 126 kts 184°
2026-04-29 21:21 24.54430 39.70260 2139 ft 180 kts 184°
2026-04-29 21:21 24.53183 39.70174 2926 ft 174 kts 184°
2026-04-29 21:22 24.52001 39.70106 3779 ft 171 kts 183°
2026-04-29 21:22 24.50788 39.70044 4444 ft 178 kts 184°
2026-04-29 21:22 24.49515 39.69945 4844 ft 188 kts 182°
2026-04-29 21:22 24.48179 39.69868 5073 ft 200 kts 187°
2026-04-29 21:23 24.46739 39.69725 5366 ft 217 kts 190°
2026-04-29 21:23 24.45107 39.69542 5744 ft 239 kts 186°
2026-04-29 21:23 24.43384 39.69402 6234 ft 257 kts 186°
2026-04-29 21:23 24.41507 39.69269 6723 ft 276 kts 185°
2026-04-29 21:24 24.39570 39.69135 7389 ft 286 kts 185°
2026-04-29 21:24 24.37562 39.68997 8250 ft 289 kts 185°
2026-04-29 21:24 24.35532 39.68854 9114 ft 292 kts 184°
2026-04-29 21:24 24.33513 39.68922 9905 ft 297 kts 173°
2026-04-29 21:25 24.31428 39.69262 10691 ft 304 kts 180°
2026-04-29 21:25 24.29339 39.68869 11183 ft 318 kts 203°
2026-04-29 21:25 24.27298 39.67748 11716 ft 335 kts 210°
2026-04-29 21:25 24.25177 39.66489 12244 ft 354 kts 208°
2026-04-29 21:26 24.22952 39.65254 12894 ft 368 kts 207°
2026-04-29 21:26 24.20595 39.64030 13781 ft 374 kts 207°
2026-04-29 21:26 24.18217 39.62852 14686 ft 379 kts 207°
2026-04-29 21:26 24.15778 39.61677 15530 ft 385 kts 207°
2026-04-29 21:27 24.14138 39.60896 16077 ft 389 kts 207°
2026-04-29 21:27 24.10794 39.59318 17129 ft 397 kts 208°
2026-04-29 21:27 24.08223 39.58109 17896 ft 403 kts 208°
2026-04-29 21:27 24.05620 39.56890 18652 ft 409 kts 209°
2026-04-29 21:28 24.02989 39.55656 19409 ft 413 kts 209°
2026-04-29 21:28 24.00335 39.54412 20179 ft 417 kts 209°
2026-04-29 21:28 23.97650 39.53154 20948 ft 421 kts 208°
2026-04-29 21:28 23.94972 39.51904 21571 ft 424 kts 208°
2026-04-29 21:29 23.92248 39.50635 21905 ft 426 kts 208°
2026-04-29 21:29 23.89521 39.49368 21954 ft 425 kts 208°
2026-04-29 21:29 23.86776 39.48092 22087 ft 432 kts 208°
2026-04-29 21:29 23.83999 39.46799 22806 ft 434 kts 208°
2026-04-29 21:30 23.81216 39.45509 23620 ft 434 kts 208°
2026-04-29 21:30 23.78424 39.44214 24302 ft 437 kts 208°
2026-04-29 21:30 23.75629 39.42972 24901 ft 442 kts 206°
2026-04-29 21:30 23.72696 39.41847 25531 ft 446 kts 203°
2026-04-29 21:31 23.69714 39.40811 25880 ft 446 kts 203°
2026-04-29 21:31 23.66786 39.39803 25943 ft 444 kts 203°
2026-04-29 21:31 23.63817 39.38781 25940 ft 442 kts 203°
2026-04-29 21:31 23.60900 39.37773 25936 ft 443 kts 203°
2026-04-29 21:32 23.57984 39.36761 25940 ft 443 kts 203°
2026-04-29 21:32 23.55032 39.35738 25939 ft 444 kts 203°
2026-04-29 21:32 23.52094 39.34720 25942 ft 443 kts 203°
2026-04-29 21:32 23.49135 39.33696 25943 ft 443 kts 202°
2026-04-29 21:33 23.46209 39.32686 25944 ft 444 kts 202°
2026-04-29 21:33 23.43249 39.31665 25943 ft 444 kts 202°
2026-04-29 21:33 23.40332 39.30659 25942 ft 444 kts 202°
2026-04-29 21:33 23.37390 39.29644 25943 ft 444 kts 202°
2026-04-29 21:34 23.34454 39.28633 25943 ft 444 kts 202°
2026-04-29 21:34 23.31507 39.27619 25942 ft 443 kts 202°
2026-04-29 21:34 23.28565 39.26606 25939 ft 444 kts 202°
2026-04-29 21:34 23.25605 39.25587 25943 ft 444 kts 202°
2026-04-29 21:35 23.22692 39.24586 25943 ft 444 kts 202°
2026-04-29 21:35 23.19737 39.23572 25942 ft 444 kts 202°
2026-04-29 21:35 23.16788 39.22560 25939 ft 444 kts 202°
2026-04-29 21:35 23.13830 39.21548 25941 ft 444 kts 202°
2026-04-29 21:36 23.10878 39.20538 25940 ft 445 kts 202°
2026-04-29 21:36 23.07952 39.19537 25942 ft 445 kts 202°
2026-04-29 21:36 23.04995 39.18525 25942 ft 445 kts 202°
2026-04-29 21:36 23.02008 39.17502 25942 ft 445 kts 202°
2026-04-29 21:37 23.00047 39.16830 25943 ft 445 kts 202°
2026-04-29 21:37 22.96142 39.15493 25943 ft 445 kts 202°
2026-04-29 21:37 22.93177 39.14478 25942 ft 445 kts 202°
2026-04-29 21:37 22.90208 39.13463 25936 ft 445 kts 202°
2026-04-29 21:38 22.88247 39.12793 25922 ft 445 kts 202°
2026-04-29 21:38 22.84322 39.11452 25909 ft 445 kts 202°
2026-04-29 21:38 22.82328 39.10844 25900 ft 448 kts 198°
2026-04-29 21:38 22.79244 39.10187 25898 ft 452 kts 193°
2026-04-29 21:39 22.75059 39.09820 25903 ft 457 kts 186°
2026-04-29 21:39 22.72908 39.09830 25910 ft 458 kts 184°
2026-04-29 21:39 22.69711 39.09905 25901 ft 459 kts 184°
2026-04-29 21:39 22.66544 39.10014 25901 ft 459 kts 183°
2026-04-29 21:40 22.63293 39.10134 25898 ft 459 kts 183°
2026-04-29 21:40 22.60117 39.10249 25898 ft 459 kts 183°
2026-04-29 21:40 22.56921 39.10360 25904 ft 459 kts 183°
2026-04-29 21:40 22.53714 39.10467 25899 ft 459 kts 183°
2026-04-29 21:41 22.50568 39.10565 25908 ft 458 kts 184°
2026-04-29 21:41 22.47370 39.10599 25890 ft 458 kts 185°
2026-04-29 21:41 22.44176 39.10606 25647 ft 456 kts 185°
2026-04-29 21:41 22.41008 39.10610 25392 ft 454 kts 185°
2026-04-29 21:42 22.37844 39.10617 25134 ft 453 kts 185°
2026-04-29 21:42 22.34719 39.10627 24840 ft 452 kts 184°
2026-04-29 21:42 22.31573 39.10640 24522 ft 450 kts 184°
2026-04-29 21:42 22.28432 39.10655 24098 ft 448 kts 184°
2026-04-29 21:43 22.25352 39.10671 23641 ft 444 kts 184°
2026-04-29 21:43 22.22262 39.10688 23151 ft 441 kts 184°
2026-04-29 21:43 22.19232 39.10704 22675 ft 437 kts 184°
2026-04-29 21:43 22.16197 39.10721 22176 ft 433 kts 184°
2026-04-29 21:44 22.13190 39.10731 21687 ft 429 kts 185°
2026-04-29 21:44 22.10230 39.10470 21191 ft 421 kts 192°
2026-04-29 21:44 22.07399 39.09829 20714 ft 413 kts 199°
2026-04-29 21:44 22.04689 39.08872 20246 ft 407 kts 203°
2026-04-29 21:45 22.02035 39.07830 19751 ft 404 kts 204°
2026-04-29 21:45 21.99426 39.06790 19285 ft 401 kts 204°
2026-04-29 21:45 21.96813 39.05748 18808 ft 398 kts 203°
2026-04-29 21:45 21.94214 39.04722 18331 ft 396 kts 203°
2026-04-29 21:46 21.91629 39.03709 17859 ft 393 kts 203°
2026-04-29 21:46 21.89087 39.02716 17390 ft 391 kts 203°
2026-04-29 21:46 21.86535 39.01717 16916 ft 389 kts 203°
2026-04-29 21:46 21.84002 39.00726 16445 ft 387 kts 203°
2026-04-29 21:47 21.81468 38.99735 15987 ft 384 kts 202°
2026-04-29 21:47 21.78886 38.98977 15490 ft 385 kts 190°
2026-04-29 21:47 21.76223 38.99002 15035 ft 387 kts 174°
2026-04-29 21:47 21.73609 38.99788 14588 ft 387 kts 162°
2026-04-29 21:48 21.71109 39.00810 14127 ft 385 kts 161°
2026-04-29 21:48 21.68619 39.01853 13679 ft 381 kts 161°
2026-04-29 21:48 21.66166 39.02864 13228 ft 378 kts 161°
2026-04-29 21:48 21.63706 39.03846 12761 ft 374 kts 162°
2026-04-29 21:49 21.61285 39.04796 12333 ft 371 kts 162°
2026-04-29 21:49 21.58863 39.05744 11886 ft 367 kts 162°
2026-04-29 21:49 21.56459 39.06684 11447 ft 364 kts 162°
2026-04-29 21:49 21.54121 39.07598 11006 ft 361 kts 162°
2026-04-29 21:50 21.51776 39.08516 10709 ft 352 kts 162°
2026-04-29 21:50 21.49508 39.09412 10590 ft 338 kts 162°
2026-04-29 21:50 21.47359 39.10264 10455 ft 325 kts 162°
2026-04-29 21:50 21.45281 39.11086 10320 ft 312 kts 162°
2026-04-29 21:51 21.43286 39.11875 10202 ft 300 kts 162°
2026-04-29 21:51 21.41352 39.12639 10035 ft 291 kts 162°
2026-04-29 21:51 21.37509 39.14153 8816 ft 293 kts 161°
2026-04-29 21:52 21.35628 39.14897 8305 ft 292 kts 161°
2026-04-29 21:52 21.33721 39.15651 7889 ft 287 kts 161°
2026-04-29 21:52 21.31864 39.16387 7572 ft 278 kts 161°
2026-04-29 21:52 21.30058 39.17102 7110 ft 276 kts 161°
2026-04-29 21:53 21.28261 39.17812 6657 ft 274 kts 161°
2026-04-29 21:53 21.26557 39.18604 6402 ft 266 kts 146°
2026-04-29 21:53 21.25321 39.20017 6182 ft 257 kts 118°
2026-04-29 21:53 21.24828 39.21807 5981 ft 247 kts 91°
2026-04-29 21:54 21.25081 39.23591 5829 ft 236 kts 71°
2026-04-29 21:54 21.25643 39.25211 5647 ft 231 kts 67°
2026-04-29 21:54 21.26312 39.26774 5376 ft 228 kts 53°
2026-04-29 21:54 21.27433 39.27958 5109 ft 224 kts 28°
2026-04-29 21:55 21.28868 39.28538 4844 ft 220 kts
2026-04-29 21:55 21.30356 39.28467 4575 ft 216 kts 343°
2026-04-29 21:55 21.31776 39.27945 4310 ft 214 kts 338°
2026-04-29 21:55 21.33179 39.27359 4044 ft 213 kts 338°
2026-04-29 21:56 21.34548 39.26791 3792 ft 212 kts 338°
2026-04-29 21:56 21.35918 39.26234 3533 ft 211 kts 339°
2026-04-29 21:56 21.37295 39.25683 3270 ft 210 kts 339°
2026-04-29 21:56 21.38670 39.25138 3051 ft 208 kts 339°
2026-04-29 21:57 21.40016 39.24607 2999 ft 199 kts 339°
2026-04-29 21:57 21.41274 39.24111 3028 ft 188 kts 339°
2026-04-29 21:57 21.42503 39.23627 3033 ft 187 kts 339°
2026-04-29 21:57 21.43730 39.23143 3010 ft 187 kts 339°
2026-04-29 21:58 21.44921 39.22673 2994 ft 179 kts 339°
2026-04-29 21:58 21.46095 39.22218 2994 ft 177 kts 340°
2026-04-29 21:58 21.47245 39.21791 3000 ft 176 kts 340°
2026-04-29 21:58 21.48414 39.21352 2998 ft 176 kts 340°
2026-04-29 21:59 21.49574 39.20907 2996 ft 176 kts 340°
2026-04-29 21:59 21.50727 39.20455 2995 ft 176 kts 339°
2026-04-29 21:59 21.51863 39.20006 2993 ft 176 kts 339°
2026-04-29 21:59 21.53017 39.19546 2924 ft 176 kts 339°
2026-04-29 22:00 21.54140 39.19100 2689 ft 168 kts 338°
2026-04-29 22:00 21.55238 39.18663 2466 ft 167 kts 338°
2026-04-29 22:00 21.56330 39.18226 2254 ft 167 kts 338°
2026-04-29 22:00 21.57378 39.17807 2031 ft 161 kts 338°
2026-04-29 22:01 21.58430 39.17387 1829 ft 161 kts 339°
2026-04-29 22:01 21.59486 39.16966 1627 ft 161 kts 340°
2026-04-29 22:01 21.60544 39.16545 1415 ft 160 kts 341°
2026-04-29 22:01 21.61590 39.16130 1201 ft 158 kts 341°
2026-04-29 22:02 21.62595 39.15732 977 ft 151 kts 340°
2026-04-29 22:02 21.63567 39.15342 760 ft 150 kts 340°
2026-04-29 22:02 21.64544 39.14953 577 ft 149 kts 340°
2026-04-29 22:02 21.65521 39.14567 389 ft 149 kts 340°
2026-04-29 22:03 21.66492 39.14180 192 ft 149 kts 340°
2026-04-29 22:03 21.67468 39.13796 43 ft 146 kts 340°
2026-04-29 22:03 21.68254 39.13483 35 ft 91 kts 339°
2026-04-29 22:03 21.68700 39.13305 35 ft 58 kts 340°
2026-04-29 22:04 21.68989 39.13191 36 ft 21 kts 334°
2026-04-29 22:04 21.69114 39.13083 33 ft 26 kts 315°
2026-04-29 22:04 21.69222 39.12957 33 ft 11 kts 288°
2026-04-29 22:04 21.69172 39.12911 32 ft 12 kts 173°
2026-04-29 22:05 21.69073 39.12943 32 ft 16 kts 159°
2026-04-29 22:05 21.68954 39.12992 34 ft 20 kts 159°
2026-04-29 22:05 21.68667 39.13103 38 ft 25 kts 161°
2026-04-29 22:06 21.68492 39.13175 37 ft 28 kts 158°
2026-04-29 22:06 21.68296 39.13253 33 ft 32 kts 160°
2026-04-29 22:06 21.68111 39.13326 36 ft 23 kts 159°
2026-04-29 22:06 21.67948 39.13392 36 ft 27 kts 159°
2026-04-29 22:07 21.67766 39.13464 36 ft 27 kts 160°
2026-04-29 22:07 21.67604 39.13528 36 ft 25 kts 160°
2026-04-29 22:07 21.67440 39.13592 36 ft 19 kts 160°
2026-04-29 22:07 21.67340 39.13632 36 ft 12 kts 160°
2026-04-29 22:08 21.67253 39.13666 33 ft 8 kts 160°
2026-04-29 22:08 21.67224 39.13677 35 ft 1 kts 170°
2026-04-29 22:08 21.67205 39.13671 35 ft 4 kts 217°
2026-04-29 22:08 21.67182 39.13628 35 ft 6 kts 248°
2026-04-29 22:09 21.67174 39.13606 35 ft 0 kts 249°